Find Starlink 36705

NORAD ID: 67712 Int'l Des: 2026-025 Owner: SPXS Country: US Constellation: starlink operational
LEOCIRCULARRETROGRADE

Live-Position

3D-Globus wird geladen...

Über Starlink 36705

Beschreibung wird geladen...

Nächste Überflüge

Passes for default location (London). Set your location on the main map for personalized predictions.

Höhenverlauf

Loading altitude history...

Zweizeiliger Elementsatz

1 67712U 26025V 26106.56020757 .00021662 00000-0 67141-3 0 9994
2 67712 97.2884 218.6713 0000651 105.2237 254.9078 15.33443885 11813
Epoch: 16. Apr. 2026 • Age: 20 hours

Aktueller Status

Höhe 483.0 km
Geschwindigkeit 7.62 km/s
Subsatellitenpunkt -44.59°S, 48.53°E
Startdatum 7. Feb. 2026
Alter 0.1 years
Typ internet

Technische Details

Klassifizierung Payload
Masse 575.00 kg
Trockenmasse 530.00 kg
Gesamtmasse 575.00 kg
Länge 0.30 m
Durchmesser 4.10 m
Spannweite 29.00 m
Form Box + pan
Hersteller SPXS
Bus-Typ Starlink V2MO
Phasenstatus In Orbit
Besitzer/Staat SPXS/US

Most Searched